TimeMST,TemperatureF,Dew PointF,Humidity,Sea Level PressureIn,VisibilityMPH,Wind Direction,Wind SpeedMPH,Gust SpeedMPH,PrecipitationIn,Events,Conditions,WindDirDegrees,DateUTC
12:53 AM,17.6,8.6,68,30.21,10.0,East,3.5,-,N/A,,Clear,80,2013-03-05 07:53:00
1:53 AM,18.0,8.1,65,30.33,10.0,Calm,Calm,-,N/A,,Clear,0,2013-03-05 08:53:00
2:53 AM,12.0,5.0,73,30.36,10.0,Calm,Calm,-,N/A,,Clear,0,2013-03-05 09:53:00
3:53 AM,10.0,5.0,80,30.34,10.0,NNW,4.6,-,N/A,,Clear,340,2013-03-05 10:53:00
4:53 AM,10.0,5.0,80,30.35,10.0,Calm,Calm,-,N/A,,Clear,0,2013-03-05 11:53:00
5:53 AM,14.0,6.1,71,30.35,10.0,Calm,Calm,-,N/A,,Clear,0,2013-03-05 12:53:00
6:53 AM,12.0,6.1,77,30.37,10.0,Calm,Calm,-,N/A,,Clear,0,2013-03-05 13:53:00
7:53 AM,16.0,9.0,74,30.35,10.0,Calm,Calm,-,N/A,,Clear,0,2013-03-05 14:53:00
8:53 AM,19.9,10.0,65,30.35,10.0,Calm,Calm,-,N/A,,Clear,0,2013-03-05 15:53:00
9:53 AM,21.9,10.9,63,30.33,10.0,NE,4.6,-,N/A,,Clear,50,2013-03-05 16:53:00
10:53 AM,25.0,10.9,55,30.30,10.0,ENE,3.5,-,N/A,,Clear,60,2013-03-05 17:53:00
11:53 AM,28.0,10.9,49,30.28,10.0,Calm,Calm,-,N/A,,Clear,0,2013-03-05 18:53:00
12:53 PM,33.1,9.0,37,30.22,10.0,East,5.8,-,N/A,,Clear,90,2013-03-05 19:53:00
1:53 PM,35.1,6.1,30,30.17,10.0,Variable,3.5,-,N/A,,Clear,0,2013-03-05 20:53:00
2:53 PM,36.0,7.0,30,30.18,10.0,ENE,5.8,-,N/A,,Clear,60,2013-03-05 21:53:00
3:53 PM,37.0,6.1,28,30.16,10.0,Calm,Calm,-,N/A,,Clear,0,2013-03-05 22:53:00
4:53 PM,37.0,8.1,30,30.14,10.0,Variable,3.5,-,N/A,,Clear,0,2013-03-05 23:53:00
5:53 PM,35.1,9.0,34,30.12,10.0,Calm,Calm,-,N/A,,Clear,0,2013-03-06 00:53:00
6:53 PM,30.0,8.1,40,30.15,10.0,North,4.6,-,N/A,,Clear,350,2013-03-06 01:53:00
7:53 PM,28.9,7.0,40,30.14,10.0,NNE,5.8,-,N/A,,Clear,20,2013-03-06 02:53:00
8:53 PM,28.0,7.0,41,30.13,10.0,North,4.6,-,N/A,,Clear,360,2013-03-06 03:53:00
9:53 PM,24.1,9.0,53,30.14,10.0,NNW,4.6,-,N/A,,Clear,340,2013-03-06 04:53:00
10:53 PM,21.9,10.0,60,30.12,10.0,NW,9.2,-,N/A,,Clear,310,2013-03-06 05:53:00
11:53 PM,23.0,9.0,55,30.10,10.0,NW,6.9,-,N/A,,Clear,320,2013-03-06 06:53:00